This is the latest recevied weather packets stored in our database for station/object N0QV. If no packets are shown the sender has not sent any weather packets the latest 10 day(s).
| Time | Temp. | Humidity | Pressure | Rain* | Wind** | Luminosity | Snow |
|---|---|---|---|---|---|---|---|
| 1777826037 | 20.56° C | 34% | 1008.4 hPa | 0 mm | - | 757 W/m² | - |
| 1777825734 | 20.56° C | 35% | 1008.4 hPa | 0 mm | - | 783 W/m² | - |
| 1777825432 | 20.56° C | 34% | 1008.5 hPa | 0 mm | - | 778 W/m² | - |
| 1777825128 | 20.56° C | 36% | 1008.3 hPa | 0 mm | - | 783 W/m² | - |
| 1777824824 | 20° C | 35% | 1008.3 hPa | 0 mm | - | 784 W/m² | - |
| 1777824521 | 20° C | 35% | 1008.3 hPa | 0 mm | - | 789 W/m² | - |
| 1777824218 | 19.44° C | 35% | 1008.4 hPa | 0 mm | - | 762 W/m² | - |
| 1777823913 | 19.44° C | 35% | 1008.4 hPa | 0 mm | - | 711 W/m² | - |
| 1777823611 | 19.44° C | 35% | 1008.3 hPa | 0 mm | - | 738 W/m² | - |
| 1777823308 | 20° C | 35% | 1008.6 hPa | 0 mm | - | 777 W/m² | - |
| 1777823006 | 20° C | 36% | 1008.5 hPa | 0 mm | - | 780 W/m² | - |
| 1777822704 | 19.44° C | 37% | 1008.4 hPa | 0 mm | - | 770 W/m² | - |
| 1777822401 | 18.89° C | 38% | 1008.4 hPa | 0 mm | - | 757 W/m² | - |
| 1777822099 | 18.89° C | 37% | 1008.5 hPa | 0 mm | - | 718 W/m² | - |
| 1777821796 | 18.33° C | 39% | 1008.4 hPa | 0 mm | - | 751 W/m² | - |
| 1777821493 | 18.33° C | 40% | 1008.3 hPa | 0 mm | - | 695 W/m² | - |
| 1777821191 | 18.33° C | 39% | 1008.3 hPa | 0 mm | - | 675 W/m² | - |
| 1777820888 | 18.33° C | 39% | 1008.2 hPa | 0 mm | - | 667 W/m² | - |
| 1777820583 | 17.78° C | 42% | 1008.4 hPa | 0 mm | - | 619 W/m² | - |
| 1777820280 | 17.78° C | 41% | 1008.2 hPa | 0 mm | - | 582 W/m² | - |
| 1777819978 | 17.78° C | 40% | 1008.1 hPa | 0 mm | - | 627 W/m² | - |
| 1777819675 | 17.78° C | 42% | 1008.1 hPa | 0 mm | - | 602 W/m² | - |
| 1777819374 | 17.22° C | 44% | 1008.1 hPa | 0 mm | - | 562 W/m² | - |
| 1777819070 | 17.22° C | 42% | 1008.1 hPa | 0 mm | - | 522 W/m² | - |
| 1777818767 | 16.67° C | 43% | 1008 hPa | 0 mm | - | 508 W/m² | - |
* Rain latest hour (hover to see other rain measurements)
** Current wind speed in m/s (hover to see current wind gust speed)